Simultaneous Nadir Overpasses (SNOs) Predictions

Prediction of SNOs between AQUA and METOP-C Satellite Orbit:

Table of predicted SNOs for the next 14.0 days since TLE Epoch: 7/30/2022
Index Date (AQUA) Time (AQUA) Lat,Lon (AQUA) SZA (AQUA ) Date (METOP-C) Time (METOP-C) Lat,Lon (METOP-C) SZA (METOP-C ) Distance(km) Time Diff (sec)
1 07/30/2022 19:41:16 73.98,-120.59 55.67 07/30/2022 19:40:32 73.99,-120.50 55.68 3.11 44
2 07/30/2022 20:30:42 -74.03, 46.94 124.28 07/30/2022 20:31:13 -74.03, 46.91 124.29 1.44 31
3 08/02/2022 14:25:25 -73.96, 138.44 123.67 08/02/2022 14:24:14 -73.96, 138.50 123.65 1.95 71
4 08/02/2022 15:14:53 74.01, -54.04 56.40 08/02/2022 15:14:53 74.01, -54.05 56.40 0.49 0
5 08/02/2022 16:04:20 -74.11, 113.39 123.49 08/02/2022 16:05:33 -74.09, 113.47 123.52 3.11 73
6 08/05/2022 09:59:01 -73.99,-155.02 122.89 08/05/2022 09:58:34 -73.98,-155.06 122.90 2.19 27
7 08/05/2022 10:48:29 74.05, 12.49 57.18 08/05/2022 10:49:13 74.03, 12.40 57.16 3.48 44
8 08/08/2022 04:43:11 73.95, 104.04 57.84 08/08/2022 04:42:14 73.96, 103.99 57.86 2.36 57
9 08/08/2022 05:32:38 -74.04, -88.51 122.07 08/08/2022 05:32:54 -74.03, -88.52 122.07 0.46 16
10 08/08/2022 06:22:16 74.61, 77.76 58.57 08/08/2022 06:23:22 74.63, 80.34 58.49 76.25 66
11 08/10/2022 23:27:13 -73.58, 3.83 121.76 08/10/2022 23:26:04 -73.51, 2.00 121.75 58.08 69
12 08/11/2022 00:16:48 74.01, 170.52 58.71 08/11/2022 00:16:34 74.02, 170.53 58.73 0.99 14
13 08/11/2022 01:06:15 -74.09, -22.02 121.19 08/11/2022 01:07:14 -74.09, -21.98 121.21 1.57 59



Historial Predications of SNOs between AQUA and METOP-C
